Flag for Australia Weather past 2 weeks in Sydney, New South Wales, Australia

Now
54 °F

Clear.


Feels Like: 53 °F
Forecast: 38 / 59 °F
Wind: 5 mph from North

Location: Sydney Airport

Current Time: Jul 4, 2015 at 7:04:17 PM

Latest Report: Jul 4, 2015 at 6:30 PM


Visibility: 10 mi

Pressure: 30.15 "Hg

Humidity: 58%

Dew point: 39 °F

Location of SydneyLocation

Historic Weather in Sydney — Graph

°F

Sydney temperature yesterday

Maximum temperature yesterday: 57 °F (at 11:00 AM)
Minimum temperature yesterday: 43 °F (at 4:00 AM)
Average temperature yesterday: 51 °F

Past Weeks' High & Low Weather Summary

 TemperatureHumidityPressure
High70 °F (Jun 24, 12:00 PM)100% (Jun 22, 1:30 AM)30.51 "Hg (Jun 22, 1:30 AM)
Low41 °F (Jul 4, 7:00 AM)25% (Jul 4, 2:00 PM)30.01 "Hg (Jul 2, 3:00 PM)
Average55 °F69%30.29 "Hg
* Reported Jun 19 6:00 PM — Jul 4 6:00 PM, Sydney, Weather by CustomWeather, © 2015

Note: Actual official high and low records may vary slightly from our data, if they occured in-between our weather recording intervals... More about our weather records

Advertising

Sydney weather history for previous 24 hours

 ConditionsComfort  
Time TempWeatherWind HumidityBarometerVisibility
6:00 PM
Sat, Jul 4
54 °FClear.3 mph54%30.15 "Hg10 mi
5:30 PM54 °FClear.5 mph58%30.12 "Hg10 mi
5:00 PM55 °FPassing clouds.7 mph55%30.12 "HgN/A
4:30 PM55 °FClear.9 mph51%30.12 "Hg10 mi
4:00 PM57 °FClear.9 mph44%30.12 "Hg10 mi
3:30 PM57 °FSunny.10 mph41%30.12 "Hg10 mi
3:00 PM57 °FSunny.10 mph44%30.12 "Hg10 mi
2:30 PM59 °FSunny.8 mph31%30.12 "Hg10 mi
2:00 PM61 °FSunny.10 mph25%30.09 "Hg10 mi
1:30 PM59 °FSunny.9 mph31%30.09 "Hg10 mi
1:00 PM57 °FSunny.8 mph29%30.12 "Hg10 mi
12:30 PM55 °FSunny.8 mph36%30.12 "Hg10 mi
12:00 PM57 °FSunny.9 mph33%30.15 "Hg10 mi
11:30 AM54 °FSunny.9 mph44%30.15 "Hg10 mi
11:00 AM54 °FSunny.8 mph41%30.18 "Hg10 mi
10:30 AM50 °FSunny.12 mph54%30.18 "Hg10 mi
10:00 AM48 °FSunny.9 mph58%30.21 "Hg10 mi
9:30 AM46 °FSunny.9 mph62%30.18 "Hg10 mi
9:00 AM46 °FSunny.9 mph66%30.18 "Hg10 mi
8:30 AM45 °FSunny.12 mph71%30.18 "Hg10 mi
8:00 AM45 °FSunny.12 mph71%30.18 "Hg10 mi
7:30 AM43 °FSunny.10 mph81%30.18 "Hg10 mi
7:00 AM41 °FScattered clouds.10 mph81%30.18 "HgN/A
6:30 AM43 °FSunny.10 mph76%30.18 "Hg10 mi
6:00 AM43 °FClear.8 mph81%30.18 "Hg10 mi
5:00 AM43 °FClear.9 mph81%30.18 "Hg10 mi
4:30 AM43 °FClear.9 mph81%30.18 "Hg10 mi
3:30 AM43 °FClear.9 mph87%30.21 "Hg10 mi
3:00 AM43 °FClear.8 mph87%30.21 "Hg10 mi
2:30 AM43 °FClear.10 mph87%30.21 "Hg10 mi
2:00 AM45 °FClear.10 mph81%30.21 "Hg10 mi
1:30 AM45 °FClear.9 mph81%30.21 "Hg10 mi
1:00 AM45 °FClear.9 mph81%30.24 "Hg10 mi
12:30 AM45 °FClear.7 mph81%30.24 "Hg10 mi
12:00 AM46 °FClear.7 mph76%30.24 "Hg10 mi
11:30 PM
Fri, Jul 3
48 °FClear.6 mph71%30.27 "Hg10 mi
11:00 PM48 °FClear.7 mph76%30.27 "Hg10 mi
10:30 PM50 °FClear.7 mph71%30.27 "Hg10 mi
10:00 PM50 °FClear.8 mph71%30.27 "Hg10 mi
9:30 PM52 °FClear.5 mph67%30.27 "Hg10 mi
9:00 PM50 °FClear.3 mph71%30.27 "Hg10 mi
8:30 PM52 °FPassing clouds.6 mph67%30.27 "HgN/A
8:00 PM52 °FClear.6 mph67%30.27 "Hg10 mi
7:30 PM52 °FClear.7 mph72%30.27 "Hg10 mi
7:00 PM52 °FClear.6 mph72%30.27 "Hg10 mi
Weather by CustomWeather, © 2015

See weather overviewHow to use our weather pages